Хуло

Грузия     41°38′39″N   42°18′53″E
темп.,
°C
ветер,
м/с
пор.,
м/с
влажн.,
%
обл.,
%
осадки,
мм/ч
давл.,
гПа
погр.,
м
28 октября, чт
чт2801:000всв22690 0.0 102614
04:000всв22710 0.0 102613
07:00−1всв22740 0.0 102613
10:00+5з11660 0.0 1023167
13:00+8з216614 0.0 1022634
16:00+7з117731 0.0 1022487
19:00+3сз009655 0.0 102418
22:00+1ююв009338 0.0 102557
29 октября, пт
пт2901:00+1ссв009134 0.0 102546
04:000всв22887 0.0 102519
07:000в118315 0.0 102411
10:00+4з117996 0.0 1023217
13:00+6з1173100 0.0 1022633
16:00+6зсз117989 0.1 1021577
19:00+3ссз1197100 0.1 102365
22:00+3юв1199100 2.6 1024189
30 октября, сб
сб3001:00+2юв1299100 1.8 1024159
04:00+2юв1298100 1.9 1025157
07:00+3вюв129592 0.0 1025173
10:00+5вюв128845 0.0 1025338
13:00+8ююв127033 0.0 1024944
16:00+8ююв127079 0.3 1023743
19:00+4в22856 0.3 102517
22:00+4в32820 0.3 102636
31 октября, вс
вс3101:00+3в33810 0.0 102642
04:00+3в33830 0.0 102644
07:00+3в438540 0.0 102653
10:00+7вюв3476100 0.0 1024165
13:00+11юв236599 0.0 1022581
16:00+11юв236468 0.0 1021773
19:00+6в33848 0.0 102337
22:00+6в338257 0.0 102445
1 ноября, пн
пн101:00+6в338232 0.0 102343
04:00+5в338423 0.0 102343
07:00+5в33835 0.0 102342
10:00+9вюв33707 0.0 1021179
13:00+13юв22566 0.0 1019815
16:00+13ю125561 0.0 10171100
19:00+8в227275 0.0 101921
22:00+8в226995 0.0 101925